FW5380 Weather Reports


Display with metric or nautical units.
time (UTC)temp
F
wind
direction
speed
MPH
gust
MPH
rain 1hr
in
rain 24hr
in
rain mn
in
humidity
%
barometer
mb
20260904220031 68 336 4.0 12.0 0.00 0.00 0.00 46 1016.4
20260904214533 69 259 3.0 9.0 0.00 0.00 0.00 46 1016.4
20260904213030 67 342 2.0 9.0 0.00 0.00 0.00 48 1016.3
20260904211533 67 19 4.0 8.0 0.00 0.00 0.00 48 1016.4
20260904204609 67 11 4.0 10.0 0.00 0.00 0.00 49 1016.5
20260904201529 67 360 2.0 7.0 0.00 0.00 0.00 49 1016.6
20260904200029 67 354 3.0 6.0 0.00 0.00 0.00 49 1016.7
20260904194530 68 15 3.0 10.0 0.00 0.00 0.00 50 1016.7
20260904193029 67 29 3.0 7.0 0.00 0.00 0.00 51 1016.9
20260904191530 68 348 4.0 9.0 0.00 0.00 0.00 51 1016.9
20260904190029 68 328 4.0 11.0 0.00 0.00 0.00 53 1017.0
20260904184529 67 349 4.0 11.0 0.00 0.00 0.00 53 1017.0
20260904183031 67 90 3.0 8.0 0.00 0.00 0.00 55 1017.0
20260904181616 65 338 2.0 7.0 0.00 0.00 0.00 57 1017.0
20260904180029 67 307 3.0 9.0 0.00 0.00 0.00 55 1017.0
20260904174530 67 340 4.0 9.0 0.00 0.00 0.00 56 1016.9
20260904173030 67 344 2.0 7.0 0.00 0.00 0.00 60 1016.9
20260904171603 63 312 2.0 6.0 0.00 0.00 0.00 68 1016.9
20260904170039 60 19 1.0 5.0 0.00 0.00 0.00 71 1017.0
20260904164532 60 55 0.0 4.0 0.00 0.00 0.00 70 1016.9
20260904161531 62 19 1.0 4.0 0.00 0.00 0.00 73 1016.9
20260904160032 61 4 1.0 4.0 0.00 0.00 0.00 79 1017.0
20260904154530 56 149 0.0 3.0 0.00 0.00 0.00 88 1016.9
20260904153107 53 164 0.0 2.0 0.00 0.00 0.00 91 1016.9
20260904151528 52 211 0.0 2.0 0.00 0.00 0.00 93 1016.7
20260904150030 51 247 0.0 1.0 0.00 0.00 0.00 94 1016.6
20260904143041 48 202 0.0 2.0 0.00 0.00 0.00 94 1016.4
20260904141606 48 180 0.0 0.0 0.00 0.00 0.00 94 1016.2
20260904140030 48 180 0.0 1.0 0.00 0.00 0.00 94 1016.1
20260904134531 48 180 0.0 2.0 0.00 0.00 0.00 94 1015.9
20260904133031 48 175 1.0 3.0 0.00 0.00 0.00 93 1015.7
20260904131530 47 160 0.0 2.0 0.00 0.00 0.00 93 1015.5
20260904130031 47 180 0.0 2.0 0.00 0.00 0.00 93 1015.4
20260904124530 48 180 0.0 0.0 0.00 0.00 0.00 92 1015.5
20260904123107 48 180 0.0 0.0 0.00 0.00 0.00 92 1015.5
20260904121532 48 180 0.0 0.0 0.00 0.00 0.00 92 1015.4
20260904120029 49 180 0.0 0.0 0.00 0.00 0.00 92 1015.3
20260904113030 49 180 0.0 0.0 0.00 0.00 0.00 91 1015.0
20260904111530 49 180 0.0 2.0 0.00 0.00 0.00 92 1015.0
20260904110029 49 168 2.0 4.0 0.00 0.00 0.00 92 1014.9
20260904104531 49 174 1.0 3.0 0.00 0.00 0.00 93 1014.8
20260904103030 48 178 2.0 4.0 0.00 0.00 0.00 93 1014.7
20260904101607 48 174 3.0 5.0 0.00 0.00 0.00 93 1014.6
20260904094531 47 90 0.0 2.0 0.00 0.01 0.00 93 1014.4
20260904093029 47 154 1.0 4.0 0.00 0.01 0.00 92 1014.3
20260904091530 46 177 1.0 3.0 0.00 0.01 0.00 92 1014.3
20260904084532 48 180 0.0 2.0 0.00 0.01 0.00 92 1014.3
20260904083030 47 179 1.0 4.0 0.00 0.01 0.00 93 1014.2
20260904081540 47 188 1.0 4.0 0.00 0.01 0.00 93 1014.2
20260904074531 47 228 0.0 2.0 0.00 0.01 0.00 92 1014.2
20260904073032 47 179 0.0 4.0 0.00 0.01 0.00 92 1014.1
20260904071529 47 179 2.0 5.0 0.00 0.01 0.00 92 1014.1
20260904070109 47 173 2.0 5.0 0.00 0.01 0.00 92 1014.0
20260904064529 46 174 3.0 6.0 0.00 0.01 0.01 90 1014.0
20260904063032 46 179 2.0 4.0 0.00 0.01 0.01 90 1013.9
20260904060108 48 170 2.0 3.0 0.00 0.01 0.01 89 1013.7
20260904054531 49 182 1.0 3.0 0.00 0.01 0.01 89 1013.8
20260904053032 50 170 2.0 4.0 0.00 0.01 0.01 89 1013.9
20260904050028 50 183 2.0 4.0 0.00 0.01 0.01 89 1013.9
20260904044530 50 252 1.0 4.0 0.00 0.01 0.01 89 1013.8
20260904043030 50 218 2.0 4.0 0.00 0.01 0.01 89 1013.9
20260904041532 50 190 2.0 5.0 0.00 0.01 0.01 88 1014.1
20260904034537 50 179 2.0 4.0 0.00 0.01 0.01 87 1014.0
20260904033107 51 187 2.0 4.0 0.00 0.02 0.01 86 1013.8
20260904031530 52 181 2.0 4.0 0.00 0.03 0.01 85 1013.6
20260904030030 52 227 0.0 4.0 0.00 0.07 0.01 83 1013.5
20260904024530 52 217 1.0 7.0 0.00 0.07 0.01 82 1013.4
20260904021529 54 339 4.0 9.0 0.00 0.07 0.01 76 1013.0
20260904020029 55 167 0.0 5.0 0.00 0.07 0.01 74 1013.2
20260904013031 56 252 0.0 4.0 0.00 0.07 0.01 71 1012.9
20260904011546 56 308 1.0 6.0 0.00 0.07 0.01 70 1012.8
20260904010105 57 306 4.0 9.0 0.00 0.07 0.01 68 1012.7
20260904004531 58 303 6.0 15.0 0.00 0.07 0.01 68 1012.6
20260904003032 58 306 7.0 15.0 0.00 0.07 0.01 66 1012.6
20260904001532 59 306 6.0 14.0 0.00 0.07 0.01 63 1012.7
20260904000107 61 304 6.0 16.0 0.00 0.07 0.01 60 1012.5
20260903234529 62 325 7.0 12.0 0.00 0.07 0.01 56 1012.4
20260903233032 64 322 5.0 15.0 0.00 0.07 0.01 51 1012.4
20260903231531 67 305 5.0 11.0 0.00 0.07 0.01 47 1012.4
20260903230032 68 307 1.0 6.0 0.00 0.07 0.01 45 1012.4
20260903224531 69 136 1.0 5.0 0.00 0.07 0.01 43 1012.4
20260903223029 70 207 2.0 9.0 0.00 0.07 0.01 44 1012.5